Tillbaka till svenska Fidonet
English   Information   Debug  
FILM   0/18
FNEWS_PUBLISH   4851
FN_SYSOP   42078
FN_SYSOP_OLD1   71952
FTP_FIDO   0/2
FTSC_PUBLIC   0/13916
FUNNY   0/4886
GENEALOGY.EUR   0/71
GET_INFO   105
GOLDED   0/408
HAM   428/16597
HOLYSMOKE   0/6791
HOT_SITES   0/1
HTMLEDIT   0/71
HUB203   466
HUB_100   264
HUB_400   39
HUMOR   0/29
IC   2252/2851
INTERNET   0/424
INTERUSER   0/3
IP_CONNECT   719
JAMNNTPD   0/233
JAMTLAND   0/47
KATTY_KORNER   0/41
LAN   0/16
LINUX-USER   0/19
LINUXHELP   0/1155
LINUX   0/22279
LINUX_BBS   0/957
mail   18.68
mail_fore_ok   249
MENSA   0/341
MODERATOR   0/102
MONTE   0/992
MOSCOW_OKLAHOMA   0/1245
MUFFIN   0/783
MUSIC   0/321
N203_STAT   938
N203_SYSCHAT   313
NET203   321
NET204   69
NET_DEV   0/10
NORD.ADMIN   0/101
NORD.CHAT   0/2572
NORD.FIDONET   189
NORD.HARDWARE   0/28
NORD.KULTUR   0/114
NORD.PROG   0/32
NORD.SOFTWARE   0/88
NORD.TEKNIK   0/58
NORD   0/453
OCCULT_CHAT   0/93
OS2BBS   0/787
OS2DOSBBS   0/580
OS2HW   0/42
OS2INET   0/37
OS2LAN   0/134
OS2PROG   0/36
OS2REXX   0/113
OS2USER-L   207
OS2   0/4823
OSDEBATE   4630/18996
PASCAL   0/490
PERL   0/457
PHP   0/45
POINTS   0/405
POLITICS   0/29554
POL_INC   0/14731
PSION   103
R20_ADMIN   1133
R20_AMATORRADIO   0/2
R20_BEST_OF_FIDONET   16
R20_CHAT   0/896
R20_DEPP   0/3
R20_DEV   400
R20_ECHO2   1763
R20_ECHOPRES   0/35
R20_ESTAT   0/719
R20_FIDONETPROG...
...RAM.MYPOINT
  0/2
R20_FIDONETPROGRAM   0/22
R20_FIDONET   0/248
R20_FILEFIND   0/24
R20_FILEFOUND   0/22
R20_HIFI   0/3
R20_INFO2   3656
R20_INTERNET   0/12940
R20_INTRESSE   0/60
R20_INTR_KOM   0/99
R20_KANDIDAT.CHAT   42
R20_KANDIDAT   28
R20_KOM_DEV   112
R20_KONTROLL   0/13360
R20_KORSET   0/18
R20_LOKALTRAFIK   0/24
R20_MODERATOR   0/1852
R20_NC   76
R20_NET200   245
R20_NETWORK.OTH...
...ERNETS
  0/13
R20_OPERATIVSYS...
...TEM.LINUX
  0/44
R20_PROGRAMVAROR   0/1
R20_REC2NEC   534
R20_SFOSM   0/341
R20_SF   0/108
R20_SPRAK.ENGLISH   0/1
R20_SQUISH   107
R20_TEST   2
R20_WORST_OF_FIDONET   20
RAR   0/9
RA_MULTI   106
RA_UTIL   0/162
REGCON.EUR   0/2067
REGCON   0/13
SCIENCE   0/1206
SF   0/239
SHAREWARE_SUPPORT   0/5146
SHAREWRE   0/14
SIMPSONS   0/169
STATS_OLD1   0/2539.065
STATS_OLD2   0/2530
STATS_OLD3   0/2395.095
STATS_OLD4   0/1692.25
SURVIVOR   0/495
SYSOPS_CORNER   0/3
SYSOP   0/84
TAGLINES   0/112
TEAMOS2   0/4530
TECH   0/2617
TEST.444   0/105
TRAPDOOR   0/19
TREK   0/755
TUB   0/290
UFO   0/40
UNIX   0/1316
USA_EURLINK   0/102
USR_MODEMS   0/1
VATICAN   0/2740
VIETNAM_VETS   0/14
VIRUS   0/378
VIRUS_INFO   0/201
VISUAL_BASIC   0/473
WHITEHOUSE   0/5187
WIN2000   0/101
WIN32   0/30
WIN95   0/4291
WIN95_OLD1   0/70272
WINDOWS   0/1517
WWB_SYSOP   0/419
WWB_TECH   0/810
ZCC-PUBLIC   0/1
ZEC   4

 
4DOS   0/134
ABORTION   0/7
ALASKA_CHAT   0/506
ALLFIX_FILE   0/1313
ALLFIX_FILE_OLD1   0/7997
ALT_DOS   0/152
AMATEUR_RADIO   0/1039
AMIGASALE   0/14
AMIGA   0/331
AMIGA_INT   0/1
AMIGA_PROG   0/20
AMIGA_SYSOP   0/26
ANIME   0/15
ARGUS   0/924
ASCII_ART   0/340
ASIAN_LINK   0/651
ASTRONOMY   0/417
AUDIO   0/92
AUTOMOBILE_RACING   0/105
BABYLON5   0/17862
BAG   135
BATPOWER   156/361
BBBS.ENGLISH   0/382
BBSLAW   0/109
BBS_ADS   0/5290
BBS_INTERNET   0/507
BIBLE   0/3563
BINKD   0/1119
BINKLEY   0/215
BLUEWAVE   0/2173
CABLE_MODEMS   0/25
CBM   0/46
CDRECORD   0/66
CDROM   0/20
CLASSIC_COMPUTER   0/378
COMICS   0/15
CONSPRCY   0/899
COOKING   40764
COOKING_OLD1   1549/24719
COOKING_OLD2   0/40862
COOKING_OLD3   26793/37489
COOKING_OLD4   0/35496
COOKING_OLD5   9370
C_ECHO   0/189
C_PLUSPLUS   0/31
DIRTY_DOZEN   0/201
DOORGAMES   0/2234
DOS_INTERNET   0/196
duplikat   6102
ECHOLIST   0/18295
EC_SUPPORT   0/318
ELECTRONICS   0/359
ELEKTRONIK.GER   1534
ENET.LINGUISTIC   0/13
ENET.POLITICS   0/4
ENET.SOFT   0/11701
ENET.SYSOP   34241
ENET.TALKS   0/32
ENGLISH_TUTOR   0/2000
EVOLUTION   0/1335
FDECHO   0/217
FDN_ANNOUNCE   0/7068
FIDONEWS   24878
FIDONEWS_OLD1   0/49742
FIDONEWS_OLD2   10962/35949
FIDONEWS_OLD3   0/30874
FIDONEWS_OLD4   0/37224
FIDO_SYSOP   12919
FIDO_UTIL   0/180
FILEFIND   0/209
FILEGATE   0/212
Möte HAM, 16597 texter
 lista första sista föregående nästa
Text 181, 737 rader
Skriven 2005-01-07 00:01:36 av Amsat List (1:323/120.0)
Ärende: 
========

SB KEPS @ AMSAT  $ORB05006.O
Orbital Elements  05006.OSCAR

HR AMSAT ORBITAL ELEMENTS FOR OSCAR SATELLITES
FROM WA5QGD FORT WORTH,TX January 6, 2005
SEND SUBSCRIBE/UNSUBSCRIBE TO majordomo@amsat.org ONLY
BID: ORB05006.O
TO ALL RADIO AMATEURS BT

Satellite: AO-07
Catalog number: 07530
Epoch time:      05006.70358313
Element set:     369
Inclination:      101.6548 deg
RA of node:        56.0251 deg
Eccentricity:    0.0012341
Arg of perigee:   187.0922 deg
Mean anomaly:     172.9977 deg
Mean motion:   12.53570208 rev/day
Decay rate:       -2.8e-07 rev/day^2
Epoch rev:           37941
Checksum:              286

Satellite: AO-10
Catalog number: 14129
Epoch time:      05004.13897902
Element set:    0138
Inclination:      026.9400 deg
RA of node:       053.3835 deg
Eccentricity:    0.6031508
Arg of perigee:   154.2726 deg
Mean anomaly:     255.4315 deg
Mean motion:   02.05869245 rev/day
Decay rate:       -9.6e-07 rev/day^2
Epoch rev:           16215
Checksum:              284

Satellite: UO-11
Catalog number: 14781
Epoch time:      05006.26633886
Element set:     679
Inclination:       98.1939 deg
RA of node:         0.6646 deg
Eccentricity:    0.0009777
Arg of perigee:   153.9082 deg
Mean anomaly:     206.2626 deg
Mean motion:   14.79121798 rev/day
Decay rate:       1.76e-06 rev/day^2
Epoch rev:           11786
Checksum:              337

Satellite: RS-10/11
Catalog number: 18129
Epoch time:      05006.36006468
Element set:     582
Inclination:       82.9252 deg
RA of node:       357.8370 deg
Eccentricity:    0.0013210
Arg of perigee:   112.2187 deg
Mean anomaly:     248.0373 deg
Mean motion:   13.72751577 rev/day
Decay rate:        3.0e-07 rev/day^2
Epoch rev:           87887
Checksum:              297

Satellite: FO-20
Catalog number: 20480
Epoch time:      05006.15170690
Element set:     788
Inclination:       99.0158 deg
RA of node:       211.1827 deg
Eccentricity:    0.0539714
Arg of perigee:   246.8926 deg
Mean anomaly:     107.4422 deg
Mean motion:   12.83344319 rev/day
Decay rate:       -3.2e-07 rev/day^2
Epoch rev:           69871
Checksum:              305

Satellite: RS-12/13
Catalog number: 21089
Epoch time:      05006.19506855
Element set:     806
Inclination:       82.9224 deg
RA of node:        31.1105 deg
Eccentricity:    0.0029387
Arg of perigee:   167.5703 deg
Mean anomaly:     192.6181 deg
Mean motion:   13.74445544 rev/day
Decay rate:        1.6e-07 rev/day^2
Epoch rev:           69824
Checksum:              303

Satellite: RS-15
Catalog number: 23439
Epoch time:      05005.47790303
Element set:    0853
Inclination:      064.8209 deg
RA of node:       010.6928 deg
Eccentricity:    0.0159063
Arg of perigee:   344.8103 deg
Mean anomaly:     014.8076 deg
Mean motion:   11.27550814 rev/day
Decay rate:       -3.9e-07 rev/day^2
Epoch rev:           41304
Checksum:              284

Satellite: FO-29
Catalog number: 24278
Epoch time:      05006.76656050
Element set:     866
Inclination:       98.5706 deg
RA of node:        77.9554 deg
Eccentricity:    0.0350183
Arg of perigee:   234.4272 deg
Mean anomaly:     122.3760 deg
Mean motion:   13.52907509 rev/day
Decay rate:        4.0e-08 rev/day^2
Epoch rev:           41436
Checksum:              312

Satellite: SO-33
Catalog number: 25509
Epoch time:      05006.76214465
Element set:     272
Inclination:       31.4284 deg
RA of node:       225.0007 deg
Eccentricity:    0.0355397
Arg of perigee:   195.3225 deg
Mean anomaly:     163.6289 deg
Mean motion:   14.27952273 rev/day
Decay rate:       4.67e-06 rev/day^2
Epoch rev:           32373
Checksum:              303

Satellite: AO-40
Catalog number: 26609
Epoch time:      05005.69492605
Element set:     481
Inclination:        8.9196 deg
RA of node:       326.7769 deg
Eccentricity:    0.7963004
Arg of perigee:   354.7714 deg
Mean anomaly:       0.1162 deg
Mean motion:    1.25586690 rev/day
Decay rate:      -1.51e-06 rev/day^2
Epoch rev:            1921
Checksum:              307

/EX
SB KEPS @ AMSAT  $ORB05006.D
Orbital Elements  05006.MICROS

HR AMSAT ORBITAL ELEMENTS FOR THE MICROSATS
FROM WA5QGD FORT WORTH,TX January 6, 2005
SEND SUBSCRIBE/UNSUBSCRIBE TO majordomo@amsat.org ONLY
BID: ORB05006.D
TO ALL RADIO AMATEURS BT

Satellite: UO-14
Catalog number: 20437
Epoch time:      05006.79002394
Element set:     681
Inclination:       98.1993 deg
RA of node:        25.5046 deg
Eccentricity:    0.0010234
Arg of perigee:   319.5373 deg
Mean anomaly:      40.5058 deg
Mean motion:   14.31391647 rev/day
Decay rate:        1.1e-07 rev/day^2
Epoch rev:           78094
Checksum:              285

Satellite: AO-16
Catalog number: 20439
Epoch time:      05006.12526701
Element set:     367
Inclination:       98.2229 deg
RA of node:        39.8990 deg
Eccentricity:    0.0010918
Arg of perigee:   329.9230 deg
Mean anomaly:      30.1327 deg
Mean motion:   14.31652241 rev/day
Decay rate:        4.0e-07 rev/day^2
Epoch rev:           78090
Checksum:              277

Satellite: WO-18
Catalog number: 20441
Epoch time:      05006.83719557
Element set:     559
Inclination:       98.2367 deg
RA of node:        44.7818 deg
Eccentricity:    0.0011312
Arg of perigee:   327.9135 deg
Mean anomaly:      32.1357 deg
Mean motion:   14.31727131 rev/day
Decay rate:        4.8e-07 rev/day^2
Epoch rev:           78106
Checksum:              296

Satellite: LO-19
Catalog number: 20442
Epoch time:      05006.10590741
Element set:     294
Inclination:       98.2470 deg
RA of node:        48.3411 deg
Eccentricity:    0.0011742
Arg of perigee:   328.9226 deg
Mean anomaly:      31.1263 deg
Mean motion:   14.31899094 rev/day
Decay rate:        5.5e-07 rev/day^2
Epoch rev:           78102
Checksum:              276

